SUCHAI (42788 NORAD) Tracking and Keplerian Element Data

This shows tracking and keplerian element data for the satellite.

Feedback or suggestion? Click here.




ElementValue
Catalog42788
NameSUCHAI
Epoch Orbit5923
Epoch Day198.70997455
Epoch Year2018
RAAN258.0943
Inclination97.3991
Eccentricity0.0011114
Argument of Perigee337.3321
Mean Anonmoly22.7423
Mean Motion15.22011954
Decay Rate1.15E-05
L11 42788U 17036Z 18198.70997455 .00001150 00000-0 53343-4 0 9998
L22 42788 97.3991 258.0943 0011114 337.3321 22.7423 15.22011954 59239

Live tracking and technical data element details for SUCHAI (NORAD 42788). SUCHAI can be tracked NOW for your location showing map with azimuth and elevation plus other details from your city location.

Track the satellite on the map from your city or location and see movement details for azimuth, elevation, latitude, longitude, range, height, and movement on the map or in text.







IsCatalogInMostPopularTable: catalog: 42788, numindb: 92
Update: records affected: 1



GetName: 42788 SUCHAI

Hit Count: updated at: Fri, 20 Jul 2018 20:36:35 GMT